[[{"header":{"parameterUnit":"m.s-1","parameterCategory":1,"la1":30.2991,"la2":30.254,"lo1":-89.0895,"lo2":-89.0444,"dy":0.0017,"dx":0.0017,"nx":28,"ny":28,"refTime":"2024-09-30T09:00:00:Z","depth":0,"parameterNumber":2,"parameterNumberName":"U-component_of_WINDS"},"data":[0,0,0,0,0,0,0,0,0,0,0,0,0,0,0,0,0,0,0,0,0,0,0,0,0,0,0,0,0,0,0,0,0,0,0,0,0,0,0,0,0,0,0,0,0,0,0,0,0,0,0,0,0,0,0,0,0,0,1.4768,1.477,0,1.493,1.4932,1.4933,1.4917,1.4914,1.4912,1.491,1.5079,1.5086,1.5093,0,0,0,0,0,0,0,0,0,0,0,0,0,1.445,1.4456,1.4768,1.477,1.4772,1.4929,1.4932,1.4934,1.4917,1.4914,1.4911,1.4908,1.5077,1.5085,1.5093,0,0,0,0,0,0,0,0,0,0,0,0,0,1.4597,1.4458,1.4768,1.4783,1.4786,1.4929,1.4932,1.4934,1.4918,1.4914,1.491,1.4907,1.5074,1.5084,1.5094,1.5234,0,0,1.5126,1.513,0,0,0,0,0,0,0,0,1.4589,1.4609,1.4778,1.4782,1.4785,1.4899,1.4882,1.5035,1.4919,1.4868,1.4909,1.4905,1.5023,1.5037,1.5076,1.5242,1.5249,1.5127,1.5133,1.5137,1.514,0,0,0,0,0,0,0,1.4579,1.4602,1.4832,1.4781,1.4785,1.4783,1.48,1.4911,1.4965,1.4872,1.4871,1.489,1.5024,1.5066,1.508,1.5252,1.5126,1.5136,1.5142,1.5146,1.5544,1.5548,0,0,0,0,0,0,1.4564,1.4594,1.4827,1.4837,1.4676,1.4792,1.4811,1.4867,1.4963,1.4975,1.4894,1.4889,1.505,1.5068,1.5085,1.5258,1.5137,1.5147,1.5153,1.554,1.5545,1.555,0,0,0,0,0,0,1.4558,1.4585,1.482,1.4715,1.4745,1.4801,1.4864,1.4872,1.4914,1.498,1.499,1.4926,1.5048,1.5071,1.5198,1.5263,1.5152,1.5161,1.5535,1.5542,1.5548,1.5601,0,0,0,0,0,0,1.4549,1.4583,1.4635,1.4716,1.4751,1.4929,1.4868,1.4878,1.4931,1.4927,1.5013,1.5024,1.5047,1.5182,1.5208,1.5275,1.5169,1.5529,1.5538,1.5546,1.5594,1.5609,1.5622,0,0,0,0,0,1.4537,1.4645,1.4638,1.4666,1.4817,1.4932,1.4952,1.4975,1.4936,1.4991,1.5033,1.5021,1.5252,1.5196,1.5224,1.5296,1.5525,1.5535,1.5545,1.5588,1.5606,1.5622,0,0,0,0,0,0,1.4571,1.4655,1.4649,1.4786,1.4852,1.4929,1.4998,1.4993,1.5073,1.5066,1.5092,1.5112,1.524,1.528,1.5216,1.5437,1.5383,1.54,1.5406,1.5424,1.5438,1.5426,1.5178,0,0,0,0,0,1.4594,1.4679,1.4749,1.4862,1.4896,1.4941,1.4992,1.5004,1.5075,1.5103,1.5155,1.5225,1.5313,1.5371,1.5455,1.56,1.562,1.5663,1.5677,1.5688,1.5702,1.5784,1.5805,1.5582,1.5582,1.5582,0,0,1.4643,1.4699,1.4752,1.4871,1.4923,1.5013,1.4965,1.5061,1.5128,1.5118,1.5241,1.5282,1.5361,1.5498,1.5561,1.5536,1.5768,1.5701,1.5709,1.5717,1.5796,1.5817,1.5836,1.5589,1.5588,1.5587,0,0,1.4777,1.4828,1.4929,1.4983,1.5063,1.5093,1.5117,1.5196,1.5223,1.5346,1.5341,1.5422,1.5573,1.5631,1.568,1.5839,1.5831,1.5866,1.5939,1.6018,1.6035,1.6051,1.611,1.613,1.5879,1.5879,1.588,0,1.4828,1.4961,1.4982,1.508,1.5133,1.5127,1.5231,1.5283,1.5387,1.5425,1.5395,1.5586,1.5639,1.579,1.5829,1.5868,1.5899,1.5856,1.6031,1.6047,1.6062,1.6118,1.614,1.5883,1.5883,1.5882,1.5882,0,1.5021,1.5113,1.5186,1.5286,1.5348,1.5448,1.5486,1.5546,1.5553,1.5587,1.5714,1.5778,1.5876,1.5913,1.5921,1.6067,1.6049,1.6025,1.5971,1.6086,1.614,1.6161,1.5889,1.5887,1.5886,1.5885,0,0,1.5181,1.5292,1.5319,1.5365,1.5454,1.5527,1.5627,1.5723,1.5775,1.5848,1.5934,1.6063,1.6042,1.6098,1.6113,1.6182,1.6306,1.615,1.6152,1.6178,1.6473,1.6491,1.6515,1.6301,1.6305,1.6309,1.6467,0,1.5326,1.5503,1.5526,1.5684,1.5771,1.5767,1.5855,1.5921,1.5955,1.6035,1.6074,1.6166,1.613,1.6164,1.6232,1.6276,1.6366,1.6265,1.6384,1.6388,1.6365,1.6543,1.6562,1.6708,1.6487,1.6491,1.6493,0,1.5518,1.5596,1.5762,1.5841,1.5878,1.5957,1.6047,1.6123,1.6198,1.6219,1.6282,1.6288,1.6395,1.6336,1.6485,1.6416,1.6466,1.6496,1.6502,1.6515,1.6449,1.6562,1.6755,1.6777,1.6526,1.6524,1.6521,0,1.562,1.5767,1.5886,1.5925,1.6019,1.6075,1.6117,1.6188,1.6245,1.6324,1.6362,1.6453,1.6503,1.6575,1.6607,1.6561,1.6755,1.6698,1.6776,1.6776,1.6818,1.6815,1.7023,1.6848,1.6848,1.6847,1.6847,0,1.5781,1.5883,1.5933,1.6006,1.6122,1.6148,1.6262,1.6302,1.6366,1.6448,1.6451,1.6529,1.6565,1.665,1.6675,1.6796,1.6818,1.6839,1.6845,1.684,1.6838,1.6874,1.6865,1.6853,1.6852,1.6851,1.685,0,1.5914,1.5952,1.6081,1.616,1.6182,1.6264,1.6332,1.6405,1.6439,1.6543,1.657,1.6624,1.6723,1.6762,1.6883,1.6901,1.704,1.7038,1.7015,1.7017,1.7094,1.7086,1.7333,1.7368,1.7169,1.7171,1.7172,0,1.6015,1.6093,1.6181,1.6235,1.6279,1.6368,1.6426,1.6455,1.6516,1.6608,1.6669,1.6768,1.6849,1.7008,1.706,1.7153,1.7154,1.7234,1.7168,1.7161,1.7157,1.7152,1.7161,1.7246,1.7248,1.725,1.7251,0,1.6189,1.6204,1.6286,1.6376,1.6445,1.6518,1.6588,1.6633,1.6674,1.6742,1.6843,1.6906,1.703,1.7129,1.7226,1.7271,1.727,1.7272,1.7295,1.7291,1.7275,1.7286,1.705,1.7266,1.7265,1.7263,1.7263,1.7262,1.6311,1.6381,1.6454,1.6546,1.6602,1.6668,1.6741,1.6784,1.6868,1.6971,1.6984,1.7093,1.7168,1.7297,1.7347,1.7434,1.7413,1.7447,1.7455,1.7464,1.747,1.726,1.7452,1.7451,1.7451,1.7451,1.745,0,1.6487,1.6533,1.6618,1.6716,1.679,1.678,1.6858,1.6921,1.7016,1.7086,1.7165,1.7283,1.7379,1.7439,1.7536,1.7595,1.7597,1.762,1.7616,1.7627,1.7482,1.7453,1.7617,1.7617,1.7617,1.7616,1.7616,1.7616,1.6587,1.6706,1.673,1.6878,1.6925,1.7031,1.7076,1.7138,1.7194,1.7325,1.7405,1.7442,1.7509,1.7611,1.77,1.7715,1.7752,1.7777,1.7791,1.7654,1.7637,1.7621,1.7593,1.7784,1.7784,1.7929,1.793,1.7931]},{"header":{"parameterUnit":"m.s-1","parameterCategory":1,"la1":30.2991,"la2":30.254,"lo1":-89.0895,"lo2":-89.0444,"dy":0.0017,"dx":0.0017,"nx":28,"ny":28,"refTime":"2024-09-30T09:00:00:Z","depth":0,"parameterNumber":3,"parameterNumberName":"V-component_of_WINDS"},"data":[0,0,0,0,0,0,0,0,0,0,0,0,0,0,0,0,0,0,0,0,0,0,0,0,0,0,0,0,0,0,0,0,0,0,0,0,0,0,0,0,0,0,0,0,0,0,0,0,0,0,0,0,0,0,0,0,0,0,-1.0556,-1.0556,0,-1.0525,-1.0525,-1.0524,-1.0561,-1.0563,-1.0564,-1.0565,-1.0529,-1.0527,-1.0525,0,0,0,0,0,0,0,0,0,0,0,0,0,-1.0644,-1.0642,-1.0556,-1.0556,-1.0556,-1.0525,-1.0525,-1.0524,-1.0561,-1.0563,-1.0565,-1.0566,-1.053,-1.0527,-1.0525,0,0,0,0,0,0,0,0,0,0,0,0,0,-1.0609,-1.0642,-1.0556,-1.057,-1.0571,-1.0525,-1.0525,-1.0524,-1.0561,-1.0563,-1.0565,-1.0567,-1.0531,-1.0528,-1.0524,-1.0462,0,0,-1.0514,-1.0513,0,0,0,0,0,0,0,0,-1.0611,-1.0605,-1.0569,-1.0569,-1.057,-1.0549,-1.0543,-1.0503,-1.056,-1.0565,-1.0566,-1.0568,-1.0534,-1.0531,-1.052,-1.046,-1.0459,-1.0514,-1.0512,-1.051,-1.0509,0,0,0,0,0,0,0,-1.0613,-1.0607,-1.0544,-1.0568,-1.0569,-1.0577,-1.0574,-1.0535,-1.0538,-1.0564,-1.0567,-1.0563,-1.0535,-1.0523,-1.0519,-1.0458,-1.0514,-1.0511,-1.0509,-1.0507,-1.0344,-1.0341,0,0,0,0,0,0,-1.0614,-1.0609,-1.0545,-1.0543,-1.0596,-1.0574,-1.0571,-1.0554,-1.0539,-1.0538,-1.0561,-1.0565,-1.0528,-1.0523,-1.0518,-1.0442,-1.051,-1.0507,-1.0505,-1.0346,-1.0343,-1.0341,0,0,0,0,0,0,-1.0616,-1.0608,-1.0546,-1.0577,-1.0569,-1.057,-1.0551,-1.0552,-1.0541,-1.0536,-1.0536,-1.0549,-1.0529,-1.0523,-1.0475,-1.0442,-1.0506,-1.0503,-1.0349,-1.0345,-1.0342,-1.0291,0,0,0,0,0,0,-1.0619,-1.0609,-1.0586,-1.0576,-1.0568,-1.0505,-1.0549,-1.055,-1.0535,-1.0539,-1.0525,-1.0524,-1.0531,-1.048,-1.0472,-1.0438,-1.05,-1.0352,-1.0347,-1.0343,-1.0295,-1.0286,-1.0278,0,0,0,0,0,-1.0622,-1.0572,-1.0584,-1.0577,-1.0539,-1.0503,-1.0498,-1.0507,-1.0532,-1.0508,-1.0506,-1.0525,-1.0447,-1.0475,-1.0466,-1.0431,-1.0354,-1.0348,-1.0343,-1.0299,-1.0288,-1.0278,0,0,0,0,0,0,-1.0577,-1.0571,-1.0585,-1.0531,-1.0517,-1.0509,-1.0479,-1.0495,-1.0473,-1.0478,-1.0489,-1.0486,-1.0435,-1.0428,-1.0459,-1.0369,-1.0404,-1.0397,-1.0374,-1.0363,-1.0354,-1.0356,-1.0497,0,0,0,0,0,-1.0561,-1.0533,-1.0529,-1.0482,-1.0475,-1.0478,-1.0463,-1.0471,-1.0457,-1.0451,-1.0445,-1.0429,-1.0401,-1.0382,-1.0356,-1.0296,-1.0292,-1.0267,-1.0258,-1.0251,-1.0243,-1.0209,-1.0197,-1.0323,-1.0323,-1.0324,0,0,-1.0527,-1.0521,-1.0502,-1.0473,-1.0463,-1.0433,-1.0473,-1.0439,-1.0416,-1.0446,-1.04,-1.0395,-1.0378,-1.0323,-1.0299,-1.0316,-1.0208,-1.0244,-1.0239,-1.0235,-1.0202,-1.019,-1.018,-1.032,-1.0321,-1.0321,0,0,-1.0449,-1.0443,-1.0402,-1.0392,-1.0377,-1.038,-1.037,-1.036,-1.0358,-1.0313,-1.0334,-1.0306,-1.0259,-1.0245,-1.0232,-1.015,-1.0166,-1.0141,-1.0094,-1.006,-1.005,-1.0042,-1.001,-0.9999,-1.0135,-1.0135,-1.0135,0,-1.0409,-1.0365,-1.0379,-1.0343,-1.0329,-1.0356,-1.0313,-1.0303,-1.028,-1.0269,-1.029,-1.023,-1.022,-1.0162,-1.0142,-1.0131,-1.0119,-1.0142,-1.0051,-1.0042,-1.0034,-1.0004,-0.9992,-1.0132,-1.0132,-1.0132,-1.0132,0,-1.0314,-1.0283,-1.0252,-1.023,-1.0213,-1.0174,-1.018,-1.0161,-1.0172,-1.0172,-1.0124,-1.0115,-1.0087,-1.0074,-1.0084,-1.0016,-1.0027,-1.005,-1.0085,-1.0019,-0.999,-0.9979,-1.0127,-1.0128,-1.0129,-1.013,0,0,-1.0205,-1.0192,-1.018,-1.017,-1.0156,-1.0132,-1.0094,-1.0068,-1.005,-1.0034,-1.0001,-0.996,-0.998,-0.9965,-0.9974,-0.9945,-0.9877,-0.997,-0.997,-0.9951,-0.98,-0.9781,-0.9768,-0.9889,-0.9887,-0.9886,-0.98,0,-1.0125,-1.006,-1.0072,-1.0008,-0.9979,-1.0005,-0.9971,-0.9958,-0.9958,-0.9932,-0.9931,-0.9901,-0.9931,-0.9922,-0.9895,-0.9891,-0.9847,-0.9898,-0.9856,-0.9854,-0.9856,-0.9753,-0.9733,-0.9653,-0.979,-0.9788,-0.9787,0,-1.0023,-1.0003,-0.9937,-0.9927,-0.9915,-0.9885,-0.9861,-0.9837,-0.9823,-0.9824,-0.9808,-0.9822,-0.9783,-0.9822,-0.9766,-0.9801,-0.9785,-0.9781,-0.9778,-0.9772,-0.9814,-0.9741,-0.9628,-0.9615,-0.977,-0.9771,-0.9772,0,-0.9946,-0.9904,-0.9858,-0.9849,-0.9837,-0.9815,-0.9809,-0.9797,-0.978,-0.976,-0.9749,-0.9724,-0.9709,-0.9688,-0.9695,-0.9723,-0.9637,-0.9677,-0.9635,-0.9635,-0.9613,-0.9614,-0.9492,-0.9608,-0.9608,-0.9608,-0.9609,0,-0.9854,-0.9811,-0.9823,-0.9795,-0.9748,-0.9762,-0.9714,-0.9711,-0.97,-0.967,-0.9692,-0.9663,-0.9675,-0.9647,-0.9652,-0.9604,-0.9598,-0.9596,-0.9597,-0.9592,-0.9592,-0.9579,-0.9584,-0.9605,-0.9606,-0.9606,-0.9607,0,-0.9759,-0.9766,-0.9717,-0.9711,-0.9708,-0.9673,-0.9667,-0.9639,-0.9641,-0.9603,-0.9595,-0.9597,-0.9565,-0.957,-0.9534,-0.9538,-0.9477,-0.9487,-0.9482,-0.9483,-0.9439,-0.9442,-0.9303,-0.9285,-0.9415,-0.9414,-0.9413,0,-0.9698,-0.9666,-0.9656,-0.9639,-0.9631,-0.9602,-0.9585,-0.9598,-0.9579,-0.9561,-0.9535,-0.9505,-0.9481,-0.9429,-0.9426,-0.9398,-0.9405,-0.9359,-0.9401,-0.9397,-0.9401,-0.9402,-0.9397,-0.9349,-0.9348,-0.9347,-0.9346,0,-0.9588,-0.9593,-0.9569,-0.9545,-0.9525,-0.9507,-0.9491,-0.9475,-0.9486,-0.9464,-0.9432,-0.9413,-0.9377,-0.9346,-0.9321,-0.9313,-0.933,-0.9333,-0.9321,-0.9314,-0.9311,-0.9309,-0.9455,-0.9335,-0.9336,-0.9337,-0.9337,-0.9338,-0.9507,-0.9479,-0.9467,-0.9439,-0.9429,-0.9413,-0.9386,-0.9386,-0.9359,-0.9331,-0.9341,-0.9303,-0.9289,-0.9257,-0.9247,-0.9217,-0.9234,-0.9217,-0.9213,-0.9207,-0.9201,-0.9319,-0.9212,-0.9213,-0.9213,-0.9213,-0.9214,0,-0.9395,-0.939,-0.9364,-0.9341,-0.9318,-0.9339,-0.9322,-0.9301,-0.9268,-0.9255,-0.9232,-0.9194,-0.9164,-0.916,-0.9131,-0.9108,-0.9115,-0.91,-0.91,-0.9097,-0.9189,-0.92,-0.9095,-0.9095,-0.9095,-0.9095,-0.9095,-0.9095,-0.9335,-0.9288,-0.9291,-0.9239,-0.9234,-0.9198,-0.9186,-0.9172,-0.9161,-0.9118,-0.9094,-0.9092,-0.9081,-0.9052,-0.9025,-0.9025,-0.9012,-0.8993,-0.8995,-0.908,-0.9091,-0.9103,-0.9113,-0.8991,-0.8991,-0.8906,-0.8905,-0.8905]}]]